Tracking 19832 objects as of 24-Aug-2019
HD Live streaming from Space Station
objects crossing your sky now

FENGYUN 1B

Track FENGYUN 1B now!
10-day predictions
FENGYUN 1B is classified as:


NORAD ID: 20788
Int'l Code: 1990-081A
Perigee: 878.9 km
Apogee: 904.3 km
Inclination: 98.8 °
Period: 102.7 minutes
Semi major axis: 7262 km
RCS: 3.0595 m2 (large)
Launch date: September 3, 1990
Source: People's Republic of China (PRC)
Launch site: Taiyaun Space Center, China (TSC)
aabbcc
Your satellite tracking list
Your tracking list is empty




NASA's NSSDC Master Catalog

Two Line Element Set (TLE):
1 20788U 90081A   19236.50354728 -.00000245  00000-0 -13141-3 0  9994
2 20788  98.7963 248.1702 0017464  74.1091 286.1999 14.02692958482865
Source of the keplerian elements: AFSPC